Location: Orange
(33.2833°S, 149.1000°E)
Time: 21:04:49
(UTC+11:00)

Envisat - Pass Details

Date: 03 October 2022
Orbit: 763 x 765 km, 98.2° (Epoch: 01 December)

Event Time Altitude Azimuth Distance (km) Brightness Sun altitude
Exits shadow 05:21:08 10° 341° (NNW) 2,299 5.1 -16.8°
Reaches altitude 10° 05:21:08 10° 341° (NNW) 2,297 5.1 -16.8°
Maximum altitude 05:25:39 33° 277° (W) 1,287 3.6 -15.9°
Drops below altitude 10° 05:30:14 10° 214° (SW) 2,324 5.3 -15.0°
Sets 05:32:47 0° 204° (SSW) 3,258 6.2 -14.4°
